This is the latest recevied weather packets stored in our database for station/object XE2MEM-21. If no packets are shown the sender has not sent any weather packets the latest 10 day(s).
| Time | Temp. | Humidity | Pressure | Rain* | Wind** | Luminosity | Snow |
|---|---|---|---|---|---|---|---|
| 1777999349 | 33.33° C | 87% | 1004.4 hPa | - | - | - | - |
| 1777998450 | 32.22° C | 94% | 1004.6 hPa | - | - | - | - |
| 1777997549 | 30° C | 100% | 1004.6 hPa | - | - | - | - |
| 1777996649 | 29.44° C | 100% | 1004.8 hPa | - | - | - | - |
| 1777995749 | 29.44° C | 100% | 1004.9 hPa | - | - | - | - |
| 1777994849 | 29.44° C | 100% | 1004.8 hPa | - | - | - | - |
| 1777993949 | 30.56° C | 100% | 1004.8 hPa | - | - | - | - |
| 1777993049 | 30° C | 100% | 1004.9 hPa | - | - | - | - |
| 1777992149 | 29.44° C | 100% | 1005.1 hPa | - | - | - | - |
| 1777991249 | 30° C | 100% | 1005 hPa | - | - | - | - |
| 1777990349 | 28.33° C | 100% | 1004.9 hPa | - | - | - | - |
| 1777989449 | 28.33° C | 100% | 1004.8 hPa | - | - | - | - |
| 1777988549 | 26.67° C | 100% | 1004.9 hPa | - | - | - | - |
| 1777987649 | 26.11° C | 100% | 1004.8 hPa | - | - | - | - |
| 1777986748 | 26.11° C | 100% | 1004.9 hPa | - | - | - | - |
| 1777985848 | 25° C | 100% | 1004.9 hPa | - | - | - | - |
| 1777984948 | 25° C | 100% | 1004.8 hPa | - | - | - | - |
| 1777984048 | 25° C | 100% | 1004.8 hPa | - | - | - | - |
| 1777983148 | 25° C | 100% | 1004.7 hPa | - | - | - | - |
| 1777982248 | 24.44° C | 100% | 1004.5 hPa | - | - | - | - |
| 1777981348 | 25° C | 100% | 1004.6 hPa | - | - | - | - |
| 1777980448 | 25° C | 100% | 1004.7 hPa | - | - | - | - |
| 1777979548 | 25° C | 100% | 1004.7 hPa | - | - | - | - |
| 1777978648 | 24.44° C | 100% | 1004.6 hPa | - | - | - | - |
| 1777977748 | 24.44° C | 100% | 1004.5 hPa | - | - | - | - |
* Rain since midnight (hover to see other rain measurements)
** Current wind speed in m/s (hover to see current wind gust speed)